Flag for China Weather past 2 weeks in Suzhou, Jiangsu, China

Now
73 °F

Light rain. Clear.


Feels Like: 76 °F
Forecast: 66 / 77 °F
Wind: 8 mph from Southeast

Location: Shanghai Hongqiao Airport

Current Time: Jul 4, 2015 at 3:30:10 PM

Latest Report: Jul 4, 2015 at 2:30 PM


Visibility: N/A

Pressure: 29.83 "Hg

Humidity: 69%

Dew point: 63 °F

Location of SuzhouLocation

Historic Weather in Suzhou — Graph

°F

Suzhou temperature yesterday

Maximum temperature yesterday: 84 °F (at 10:00 AM)
Minimum temperature yesterday: 73 °F (at 12:00 AM)
Average temperature yesterday: 78 °F

Past Weeks' High & Low Weather Summary

 TemperatureHumidityPressure
High97 °F (Jun 25, 11:00 AM)100% (Jun 22, 8:30 AM)29.83 "Hg (Jun 22, 8:30 AM)
Low66 °F (Jul 1, 6:30 AM)51% (Jul 3, 12:30 PM)29.42 "Hg (Jun 30, 2:00 PM)
Average77 °F84%29.66 "Hg
* Reported Jun 19 2:00 PM — Jul 4 2:30 PM, Suzhou, Weather by CustomWeather, © 2015

Note: Actual official high and low records may vary slightly from our data, if they occured in-between our weather recording intervals... More about our weather records

Advertising

Suzhou weather history for previous 24 hours

 ConditionsComfort  
Time TempWeatherWind HumidityBarometerVisibility
2:30 PM
Sat, Jul 4
73 °FLight rain. Clear.8 mph69%29.83 "HgN/A
2:00 PM73 °FLight rain. Clear.8 mph65%29.83 "HgN/A
1:30 PM72 °FPassing clouds.6 mph73%29.83 "HgN/A
1:00 PM73 °FLight rain. Passing clouds.6 mph69%29.83 "HgN/A
12:30 PM73 °FSunny.6 mph69%29.83 "Hg10 mi
12:00 PM73 °FSunny.8 mph65%29.83 "Hg10 mi
11:30 AM73 °FPassing clouds.6 mph74%29.83 "HgN/A
11:00 AM73 °FPassing clouds.8 mph74%29.80 "HgN/A
10:30 AM73 °FPassing clouds.8 mph78%29.80 "HgN/A
10:00 AM73 °FLight rain. Clear.8 mph83%29.80 "HgN/A
9:30 AM73 °FLight rain. Clear.6 mph83%29.80 "HgN/A
9:00 AM72 °FLight rain. Clear.3 mph83%29.80 "HgN/A
8:30 AM72 °FSprinkles. Clear.3 mph83%29.80 "HgN/A
8:00 AM72 °FSprinkles. Clear.3 mph83%29.80 "Hg4 mi
7:30 AM73 °FSprinkles. Fog.3 mph78%29.80 "Hg2 mi
7:00 AM72 °FSprinkles. Fog.3 mph88%29.77 "Hg1 mi
6:30 AM72 °FSprinkles. Fog.3 mph88%29.77 "Hg1 mi
6:00 AM72 °FSprinkles. Fog.8 mph73%29.77 "Hg1 mi
5:30 AM73 °FSprinkles. Fog.8 mph94%29.74 "Hg1 mi
5:00 AM73 °FSprinkles. Fog.6 mph94%29.74 "Hg1 mi
4:30 AM73 °FSprinkles. Fog.6 mph94%29.74 "Hg2 mi
4:00 AM73 °FSprinkles. Fog.6 mph94%29.74 "Hg2 mi
3:30 AM73 °FSprinkles. Fog.6 mph94%29.74 "Hg2 mi
3:00 AM73 °FSprinkles. Fog.6 mph94%29.71 "Hg2 mi
2:30 AM73 °FSprinkles. Fog.6 mph89%29.71 "Hg2 mi
2:00 AM75 °FFog.3 mph83%29.74 "Hg2 mi
1:30 AM75 °FFog.3 mph83%29.74 "Hg2 mi
1:00 AM75 °FFog.3 mph83%29.74 "Hg2 mi
12:30 AM75 °FFog.6 mph83%29.74 "Hg2 mi
12:00 AM75 °FFog.6 mph78%29.74 "Hg2 mi
11:30 PM
Fri, Jul 3
75 °FFog.3 mph83%29.77 "Hg2 mi
11:00 PM75 °FFog.6 mph83%29.74 "Hg2 mi
10:30 PM75 °FFog.3 mph83%29.77 "Hg3 mi
10:00 PM77 °FFog.6 mph74%29.77 "Hg3 mi
9:30 PM77 °FFog.6 mph74%29.74 "Hg3 mi
9:00 PM77 °FFog.6 mph74%29.74 "Hg3 mi
8:30 PM77 °FFog.6 mph79%29.74 "Hg3 mi
8:00 PM77 °FFog.8 mph74%29.74 "Hg3 mi
7:30 PM77 °FFog.8 mph74%29.71 "Hg3 mi
7:00 PM79 °FPassing clouds.10 mph70%29.71 "Hg4 mi
6:30 PM79 °FPassing clouds.8 mph70%29.71 "Hg4 mi
6:00 PM79 °FPassing clouds.10 mph70%29.68 "Hg4 mi
5:30 PM79 °FClear.8 mph70%29.68 "Hg4 mi
5:00 PM81 °FClear.10 mph66%29.68 "Hg4 mi
4:30 PM81 °FClear.10 mph66%29.68 "Hg4 mi
4:00 PM81 °FClear.10 mph66%29.68 "Hg4 mi
3:30 PM81 °FSunny.10 mph66%29.68 "Hg10 mi
3:00 PM82 °FSunny.8 mph62%29.68 "Hg10 mi
Weather by CustomWeather, © 2015

See weather overviewHow to use our weather pages